Flag for South Korea Weather past 2 weeks in Incheon, South Korea

Now
73 °F

Rain. Fog.


Feels Like: 72 °F
Forecast: 76 / 85 °F
Wind: 13 mph from Northeast

Location: Incheon International Airport

Current Time: Jul 25, 2014 at 3:03:08 AM

Latest Report: Jul 25, 2014 at 2:30 AM


Visibility: 2 mi

Pressure: 29.68 "Hg

Humidity: 89%

Dew point: 70 °F

Location of IncheonLocation

Historic Weather in Incheon — Graph

°F

Incheon temperature yesterday

Maximum temperature yesterday: 77 °F (at 5:30 PM)
Minimum temperature yesterday: 66 °F (at 3:00 AM)
Average temperature yesterday: 71 °F

Past Weeks' High & Low Weather Summary

 TemperatureHumidityPressure
High90 °F (Jul 10, 2:30 PM)94% (Jul 11, 3:00 AM)29.92 "Hg (Jul 11, 3:00 AM)
Low66 °F (Jul 24, 3:00 AM)38% (Jul 10, 3:00 PM)29.39 "Hg (Jul 10, 6:30 AM)
Average76 °F79%29.74 "Hg
* Reported Jul 10 2:00 AM — Jul 25 2:00 AM, Incheon, Weather by CustomWeather, © 2014

Note: Actual official high and low records may vary slightly from our data, if they occured in-between our weather recording intervals... More about our weather records

Advertising

Incheon weather history for previous 24 hours

 ConditionsComfort  
Time TempWeatherWind HumidityBarometerVisibility
2:00 AM
Jul 25
73 °FLight rain. Fog.8 mph94%29.71 "Hg3 mi
1:30 AM73 °FLight rain. Fog.7 mph94%29.68 "Hg3 mi
1:00 AM73 °FLight rain. Fog.3 mph94%29.74 "Hg2 mi
12:30 AM73 °FLight rain. Fog.6 mph94%29.74 "Hg2 mi
12:00 AM73 °FRain. Fog.6 mph89%29.74 "Hg1 mi
11:30 PM
Jul 24
73 °FThunderstorms. Fog.3 mph89%29.74 "Hg2 mi
11:00 PM73 °FThunderstorms. Overcast.5 mph89%29.74 "Hg4 mi
10:30 PM73 °FThunderstorms. Overcast.5 mph89%29.74 "Hg4 mi
9:30 PM77 °FLight rain. Mostly cloudy.3 mph74%29.74 "Hg4 mi
9:00 PM75 °FMostly cloudy.6 mph78%29.74 "HgN/A
8:30 PM75 °FBroken clouds.2 mph78%29.74 "HgN/A
8:00 PM75 °FBroken clouds.6 mph78%29.71 "HgN/A
7:30 PM75 °FBroken clouds.3 mph78%29.71 "HgN/A
7:00 PM75 °FBroken clouds.7 mph83%29.68 "HgN/A
6:30 PM75 °FBroken clouds.6 mph83%29.71 "HgN/A
6:00 PM75 °FBroken clouds.5 mph78%29.71 "HgN/A
5:30 PM77 °FBroken clouds.5 mph74%29.71 "HgN/A
5:00 PM75 °FPartly sunny.5 mph78%29.71 "HgN/A
4:30 PM73 °FBroken clouds.6 mph83%29.71 "HgN/A
4:00 PM72 °FLight rain. Mostly cloudy.5 mph88%29.74 "HgN/A
3:30 PM72 °FLight rain. Mostly cloudy.5 mph88%29.74 "HgN/A
2:30 PM72 °FLight rain. Mostly cloudy.5 mph88%29.74 "Hg5 mi
2:00 PM72 °FLight rain. Mostly cloudy.6 mph88%29.74 "Hg5 mi
1:30 PM72 °FLight rain. Mostly cloudy.9 mph88%29.74 "Hg5 mi
1:00 PM72 °FMore clouds than sun.7 mph83%29.77 "HgN/A
12:30 PM72 °FLight rain. More clouds than sun.6 mph83%29.77 "HgN/A
11:30 AM73 °FBroken clouds.6 mph78%29.74 "HgN/A
11:00 AM72 °FBroken clouds.5 mph83%29.74 "HgN/A
10:30 AM70 °FLight rain. Mostly cloudy.7 mph88%29.74 "Hg5 mi
9:30 AM70 °FLight rain. Mostly cloudy.5 mph88%29.74 "Hg4 mi
9:00 AM68 °FLight rain. Mostly cloudy.5 mph94%29.77 "Hg4 mi
8:30 AM68 °FLight rain. Mostly cloudy.5 mph88%29.74 "Hg4 mi
8:00 AM68 °FLight rain. Mostly cloudy.3 mph88%29.74 "Hg4 mi
7:30 AM68 °FLight rain. Mostly cloudy.7 mph88%29.74 "Hg4 mi
7:00 AM66 °FRain. Fog.7 mph94%29.71 "Hg3 mi
6:30 AM66 °FHeavy rain. Fog.6 mph94%29.74 "Hg1 mi
6:00 AM66 °FHeavy rain. Fog.5 mph94%29.71 "Hg1 mi
5:30 AM66 °FHeavy rain. Fog.7 mph94%29.71 "Hg1 mi
5:00 AM66 °FHeavy rain. Fog.5 mph94%29.71 "Hg1 mi
4:30 AM66 °FHeavy rain. Fog.5 mph94%29.71 "Hg1 mi
4:00 AM66 °FHeavy rain. Fog.8 mph94%29.68 "Hg1 mi
3:30 AM66 °FHeavy rain. Fog.8 mph94%29.71 "Hg1 mi
3:00 AM66 °FMixture of precip. Fog.7 mph88%29.71 "Hg2 mi
Weather by CustomWeather, © 2014

See weather overviewHow to use our weather pages